Regional Weather Roundup
Issued by NWS

Home | Current Version | Previous Version | Graphics & Text | Print | Product List | Glossary On
Versions: 1 2 3 4 5 6 7 8 9 10 11 12 13 14 15 16 17 18 19 20 21 22 23 24 25 26 27 28 29 30 31 32 33 34 35 36 37 38 39 40 41 42 43 44 45 46 47 48 49 50
000
ASUS43 KBIS 241702
RWRND

NORTH DAKOTA REGIONAL WEATHER ROUNDUP
NATIONAL WEATHER SERVICE BISMARCK ND
1200 PM CDT FRI MAR 24 2017

NOTE: "FAIR" INDICATES FEW OR NO CLOUDS BELOW 12,000 FEET WITH NO
SIGNIFICANT WEATHER AND/OR OBSTRUCTIONS TO VISIBILITY.


NDZ001>003-009>011-017-241800-
NORTHWEST NORTH DAKOTA

CITY           SKY/WX    TMP DP  RH WIND       PRES   REMARKS
WILLISTON      FAIR      44  30  57 SE8       30.13R
MINOT          PTSUNNY   34  27  75 E9        30.18R
MINOT AFB      MOSUNNY   32  26  77 SE10      30.18R
$$

NDZ018>021-031>035-040>046-241800-
SOUTHWEST NORTH DAKOTA

CITY           SKY/WX    TMP DP  RH WIND       PRES   REMARKS
BISMARCK       FAIR      38  31  76 E8        30.19R
DICKINSON      FAIR      44  31  60 VRB6      30.11R
GARRISON         N/A     33  28  81 SE12      30.17R
HETTINGER ARPT CLOUDY    38  36  92 SE3       30.15R FOG
$$

NDZ004>008-012>016-024-026-027-054-241800-
NORTHEAST NORTH DAKOTA

CITY           SKY/WX    TMP DP  RH WIND       PRES   REMARKS
GRAND FORKS    PTSUNNY   35  29  78 N16       30.20R
GRND FRKS AFB  MOSUNNY   35  28  75 N15       30.21R
DEVILS LAKE    PTSUNNY   31  25  78 NE10      30.21R
$$

NDZ022-023-025-028>030-036>039-047>053-241800-
SOUTHEAST NORTH DAKOTA

CITY           SKY/WX    TMP DP  RH WIND       PRES   REMARKS
FARGO          MOSUNNY   38  31  76 N17       30.16R
JAMESTOWN      FAIR      35  29  78 N10       30.18R
$$





USA.gov is the U.S. government's official web portal to all federal, state and local government web resources and services.